| time (UTC) | temp F | wind direction | speed MPH | gust MPH | rain 1hr in | rain 24hr in | rain mn in | humidity % | barometer mb |
| 20260507111605 | 55 | 85 | 0.0 | 1.0 | 0.00 | 0.00 | 0.00 | 77 | 1016.4 |
| 20260507111104 | 55 | 85 | 0.0 | 1.0 | 0.00 | 0.00 | 0.00 | 77 | 1016.4 |
| 20260507110604 | 55 | 84 | 0.0 | 1.0 | 0.00 | 0.00 | 0.00 | 77 | 1016.4 |
| 20260507110105 | 55 | 84 | 0.0 | 1.0 | 0.00 | 0.00 | 0.00 | 77 | 1016.4 |
| 20260507105603 | 55 | 81 | 1.0 | 1.0 | 0.00 | 0.00 | 0.00 | 77 | 1016.4 |
| 20260507105104 | 55 | 83 | 0.0 | 1.0 | 0.00 | 0.00 | 0.00 | 77 | 1016.4 |
| 20260507104104 | 55 | 83 | 0.0 | 1.0 | 0.00 | 0.00 | 0.00 | 77 | 1016.5 |
| 20260507103604 | 55 | 82 | 0.0 | 1.0 | 0.00 | 0.00 | 0.00 | 77 | 1016.5 |
| 20260507103104 | 55 | 82 | 0.0 | 0.0 | 0.00 | 0.00 | 0.00 | 77 | 1016.5 |
| 20260507102604 | 55 | 82 | 0.0 | 1.0 | 0.00 | 0.00 | 0.00 | 77 | 1016.6 |
| 20260507102106 | 55 | 82 | 0.0 | 1.0 | 0.00 | 0.00 | 0.00 | 77 | 1016.6 |
| 20260507101604 | 55 | 82 | 0.0 | 1.0 | 0.00 | 0.00 | 0.00 | 76 | 1016.6 |
| 20260507101106 | 55 | 82 | 0.0 | 1.0 | 0.00 | 0.00 | 0.00 | 76 | 1016.7 |
| 20260507100604 | 55 | 82 | 0.0 | 1.0 | 0.00 | 0.00 | 0.00 | 75 | 1016.7 |
| 20260507100104 | 56 | 82 | 0.0 | 0.0 | 0.00 | 0.00 | 0.00 | 75 | 1017.0 |
| 20260507095603 | 56 | 82 | 0.0 | 0.0 | 0.00 | 0.00 | 0.00 | 75 | 1017.0 |
| 20260507095104 | 56 | 82 | 0.0 | 1.0 | 0.00 | 0.00 | 0.00 | 75 | 1017.0 |
| 20260507094604 | 56 | 82 | 0.0 | 1.0 | 0.00 | 0.00 | 0.00 | 75 | 1017.0 |
| 20260507094104 | 56 | 82 | 0.0 | 1.0 | 0.00 | 0.00 | 0.00 | 74 | 1017.0 |
| 20260507093603 | 56 | 82 | 0.0 | 1.0 | 0.00 | 0.00 | 0.00 | 74 | 1017.1 |
| 20260507093104 | 56 | 82 | 0.0 | 1.0 | 0.00 | 0.00 | 0.00 | 74 | 1017.1 |
| 20260507092104 | 56 | 82 | 0.0 | 1.0 | 0.00 | 0.00 | 0.00 | 75 | 1017.2 |
| 20260507091604 | 56 | 82 | 0.0 | 1.0 | 0.00 | 0.00 | 0.00 | 76 | 1017.2 |
| 20260507091104 | 56 | 82 | 0.0 | 1.0 | 0.00 | 0.00 | 0.00 | 77 | 1017.2 |
| 20260507090605 | 56 | 81 | 0.0 | 1.0 | 0.00 | 0.00 | 0.00 | 78 | 1017.2 |
| 20260507090105 | 56 | 82 | 0.0 | 2.0 | 0.00 | 0.00 | 0.00 | 77 | 1017.2 |
| 20260507085104 | 56 | 73 | 1.0 | 2.0 | 0.00 | 0.00 | 0.00 | 79 | 1017.3 |
| 20260507084604 | 56 | 74 | 0.0 | 2.0 | 0.00 | 0.00 | 0.00 | 79 | 1017.3 |
| 20260507084104 | 56 | 74 | 1.0 | 2.0 | 0.00 | 0.00 | 0.00 | 79 | 1017.5 |
| 20260507083604 | 56 | 41 | 1.0 | 1.0 | 0.00 | 0.00 | 0.00 | 79 | 1017.5 |
| 20260507083104 | 56 | 41 | 1.0 | 1.0 | 0.00 | 0.00 | 0.00 | 79 | 1017.5 |
| 20260507082604 | 56 | 31 | 0.0 | 1.0 | 0.00 | 0.00 | 0.00 | 79 | 1017.4 |
| 20260507082106 | 56 | 30 | 0.0 | 1.0 | 0.00 | 0.00 | 0.00 | 79 | 1017.4 |
| 20260507081605 | 56 | 30 | 0.0 | 2.0 | 0.00 | 0.00 | 0.00 | 79 | 1017.6 |
| 20260507080604 | 56 | 19 | 0.0 | 2.0 | 0.00 | 0.00 | 0.00 | 78 | 1017.5 |
| 20260507080105 | 56 | 17 | 0.0 | 2.0 | 0.00 | 0.00 | 0.00 | 77 | 1017.6 |
| 20260507075604 | 56 | 14 | 0.0 | 1.0 | 0.00 | 0.00 | 0.00 | 77 | 1017.6 |
| 20260507075104 | 56 | 15 | 0.0 | 0.0 | 0.00 | 0.00 | 0.00 | 76 | 1017.5 |
| 20260507074604 | 57 | 15 | 0.0 | 2.0 | 0.00 | 0.00 | 0.00 | 76 | 1017.6 |
| 20260507074104 | 57 | 14 | 0.0 | 2.0 | 0.00 | 0.00 | 0.00 | 76 | 1017.7 |
| 20260507073104 | 57 | 0 | 0.0 | 1.0 | 0.00 | 0.00 | 0.00 | 75 | 1017.7 |
| 20260507072603 | 57 | 0 | 0.0 | 1.0 | 0.00 | 0.00 | 0.00 | 75 | 1017.8 |
| 20260507072104 | 57 | 0 | 0.0 | 1.0 | 0.00 | 0.00 | 0.00 | 75 | 1017.8 |
| 20260507071104 | 58 | 355 | 0.0 | 1.0 | 0.00 | 0.00 | 0.00 | 74 | 1018.1 |
| 20260507070605 | 58 | 355 | 0.0 | 1.0 | 0.00 | 0.00 | 0.00 | 74 | 1018.1 |
| 20260507065605 | 58 | 355 | 0.0 | 1.0 | 0.00 | 0.00 | 0.00 | 73 | 1018.1 |
| 20260507065104 | 58 | 355 | 0.0 | 1.0 | 0.00 | 0.00 | 0.00 | 73 | 1018.2 |
| 20260507064604 | 59 | 355 | 0.0 | 1.0 | 0.00 | 0.00 | 0.00 | 72 | 1018.1 |
| 20260507063604 | 59 | 354 | 0.0 | 1.0 | 0.00 | 0.00 | 0.00 | 72 | 1018.2 |
| 20260507063104 | 59 | 355 | 0.0 | 1.0 | 0.00 | 0.00 | 0.00 | 72 | 1018.1 |
| 20260507062604 | 59 | 355 | 0.0 | 2.0 | 0.00 | 0.00 | 0.00 | 72 | 1018.2 |
| 20260507062106 | 59 | 354 | 0.0 | 2.0 | 0.00 | 0.00 | 0.00 | 72 | 1018.1 |
| 20260507061604 | 59 | 323 | 0.0 | 1.0 | 0.00 | 0.00 | 0.00 | 71 | 1017.9 |
| 20260507061106 | 60 | 323 | 0.0 | 1.0 | 0.00 | 0.00 | 0.00 | 71 | 1018.0 |
| 20260507060604 | 60 | 323 | 0.0 | 1.0 | 0.00 | 0.00 | 0.00 | 70 | 1018.0 |
| 20260507055605 | 60 | 323 | 1.0 | 1.0 | 0.00 | 0.00 | 0.00 | 70 | 1018.0 |
| 20260507055104 | 61 | 317 | 1.0 | 1.0 | 0.00 | 0.00 | 0.00 | 69 | 1018.0 |
| 20260507054104 | 61 | 315 | 0.0 | 0.0 | 0.00 | 0.00 | 0.00 | 68 | 1018.0 |
| 20260507053604 | 61 | 315 | 0.0 | 2.0 | 0.00 | 0.00 | 0.00 | 68 | 1017.9 |
| 20260507052604 | 62 | 315 | 0.0 | 2.0 | 0.00 | 0.00 | 0.00 | 67 | 1018.1 |
| 20260507052104 | 62 | 320 | 0.0 | 2.0 | 0.00 | 0.00 | 0.00 | 67 | 1018.0 |
| 20260507051604 | 62 | 315 | 0.0 | 1.0 | 0.00 | 0.00 | 0.00 | 67 | 1018.1 |
| 20260507051106 | 62 | 315 | 0.0 | 1.0 | 0.00 | 0.00 | 0.00 | 67 | 1018.1 |
| 20260507050604 | 62 | 315 | 0.0 | 1.0 | 0.00 | 0.00 | 0.00 | 66 | 1018.0 |
| 20260507050104 | 62 | 315 | 0.0 | 1.0 | 0.00 | 0.00 | 0.00 | 66 | 1018.1 |
| 20260507045604 | 62 | 315 | 0.0 | 2.0 | 0.00 | 0.00 | 0.00 | 66 | 1018.1 |
| 20260507045104 | 63 | 322 | 0.0 | 2.0 | 0.00 | 0.00 | 0.00 | 66 | 1018.1 |
| 20260507044104 | 63 | 298 | 1.0 | 2.0 | 0.00 | 0.00 | 0.00 | 65 | 1017.9 |
| 20260507043604 | 63 | 294 | 0.0 | 1.0 | 0.00 | 0.00 | 0.00 | 65 | 1017.9 |
| 20260507043104 | 63 | 294 | 0.0 | 1.0 | 0.00 | 0.00 | 0.00 | 65 | 1017.8 |
| 20260507042604 | 64 | 294 | 0.0 | 1.0 | 0.00 | 0.00 | 0.00 | 65 | 1017.8 |
| 20260507042106 | 64 | 294 | 0.0 | 1.0 | 0.00 | 0.00 | 0.00 | 64 | 1017.8 |
| 20260507041604 | 64 | 294 | 0.0 | 1.0 | 0.00 | 0.00 | 0.00 | 64 | 1017.8 |
| 20260507041107 | 64 | 294 | 0.0 | 1.0 | 0.00 | 0.00 | 0.00 | 64 | 1017.8 |
| 20260507040604 | 64 | 294 | 0.0 | 1.0 | 0.00 | 0.00 | 0.00 | 63 | 1017.8 |
| 20260507035604 | 65 | 293 | 0.0 | 3.0 | 0.00 | 0.00 | 0.00 | 62 | 1017.8 |
| 20260507035103 | 65 | 292 | 0.0 | 3.0 | 0.00 | 0.00 | 0.00 | 62 | 1017.8 |
| 20260507034604 | 65 | 292 | 2.0 | 3.0 | 0.00 | 0.00 | 0.00 | 61 | 1017.6 |
| 20260507034104 | 65 | 292 | 2.0 | 3.0 | 0.00 | 0.00 | 0.00 | 61 | 1017.6 |
| 20260507033605 | 65 | 292 | 2.0 | 5.0 | 0.00 | 0.00 | 0.00 | 61 | 1017.5 |
| 20260507033104 | 65 | 292 | 2.0 | 5.0 | 0.00 | 0.00 | 0.00 | 61 | 1017.3 |
| 20260507032104 | 66 | 280 | 3.0 | 5.0 | 0.00 | 0.00 | 0.00 | 60 | 1017.3 |
| 20260507031605 | 66 | 264 | 3.0 | 3.0 | 0.00 | 0.00 | 0.00 | 59 | 1017.2 |
| 20260507030604 | 67 | 248 | 2.0 | 3.0 | 0.00 | 0.00 | 0.00 | 58 | 1017.2 |
| 20260507030104 | 67 | 245 | 2.0 | 3.0 | 0.00 | 0.00 | 0.00 | 58 | 1017.2 |
| 20260507025604 | 67 | 243 | 1.0 | 3.0 | 0.00 | 0.00 | 0.00 | 58 | 1017.2 |
| 20260507025104 | 67 | 243 | 1.0 | 3.0 | 0.00 | 0.00 | 0.00 | 57 | 1017.1 |
| 20260507024604 | 67 | 243 | 1.0 | 3.0 | 0.00 | 0.00 | 0.00 | 57 | 1016.8 |
| 20260507024105 | 68 | 243 | 1.0 | 3.0 | 0.00 | 0.00 | 0.00 | 57 | 1016.7 |
| 20260507023604 | 68 | 243 | 1.0 | 3.0 | 0.00 | 0.00 | 0.00 | 56 | 1016.7 |
| 20260507023104 | 69 | 242 | 2.0 | 5.0 | 0.00 | 0.00 | 0.00 | 55 | 1016.7 |
| 20260507022604 | 69 | 305 | 2.0 | 5.0 | 0.00 | 0.00 | 0.00 | 54 | 1016.7 |
| 20260507022106 | 70 | 320 | 3.0 | 7.0 | 0.00 | 0.00 | 0.00 | 53 | 1016.7 |
| 20260507021604 | 70 | 254 | 2.0 | 8.0 | 0.00 | 0.00 | 0.00 | 53 | 1016.6 |
| 20260507020604 | 71 | 262 | 5.0 | 8.0 | 0.00 | 0.00 | 0.00 | 50 | 1016.5 |
| 20260507015604 | 72 | 244 | 5.0 | 10.0 | 0.00 | 0.00 | 0.00 | 48 | 1016.3 |
| 20260507014604 | 73 | 267 | 5.0 | 10.0 | 0.00 | 0.00 | 0.00 | 48 | 1016.3 |
| 20260507014104 | 73 | 258 | 5.0 | 9.0 | 0.00 | 0.00 | 0.00 | 48 | 1016.3 |
| 20260507013604 | 74 | 260 | 5.0 | 9.0 | 0.00 | 0.00 | 0.00 | 47 | 1016.3 |
| 20260507012104 | 75 | 265 | 6.0 | 10.0 | 0.00 | 0.00 | 0.00 | 43 | 1016.2 |
| 20260507011604 | 75 | 276 | 6.0 | 12.0 | 0.00 | 0.00 | 0.00 | 43 | 1016.2 |
| 20260507011105 | 76 | 274 | 7.0 | 12.0 | 0.00 | 0.00 | 0.00 | 42 | 1016.1 |
| 20260507010603 | 76 | 275 | 6.0 | 10.0 | 0.00 | 0.00 | 0.00 | 39 | 1016.0 |
| 20260507010104 | 76 | 263 | 5.0 | 10.0 | 0.00 | 0.00 | 0.00 | 40 | 1015.9 |
| 20260507005604 | 76 | 261 | 6.0 | 10.0 | 0.00 | 0.00 | 0.00 | 39 | 1015.9 |
| 20260507005104 | 77 | 275 | 5.0 | 12.0 | 0.00 | 0.00 | 0.00 | 37 | 1015.9 |
| 20260507004604 | 77 | 281 | 5.0 | 12.0 | 0.00 | 0.00 | 0.00 | 38 | 1015.8 |
| 20260507004105 | 77 | 282 | 6.0 | 12.0 | 0.00 | 0.00 | 0.00 | 35 | 1015.8 |
| 20260507003604 | 77 | 261 | 5.0 | 12.0 | 0.00 | 0.00 | 0.00 | 35 | 1015.8 |
| 20260507002604 | 77 | 322 | 7.0 | 12.0 | 0.00 | 0.00 | 0.00 | 32 | 1015.8 |
| 20260507001604 | 78 | 303 | 5.0 | 13.0 | 0.00 | 0.00 | 0.00 | 32 | 1015.8 |
| 20260507000603 | 78 | 294 | 5.0 | 12.0 | 0.00 | 0.00 | 0.00 | 32 | 1015.7 |
| 20260507000105 | 78 | 300 | 7.0 | 12.0 | 0.00 | 0.00 | 0.00 | 31 | 1015.8 |
| 20260506235604 | 78 | 320 | 5.0 | 12.0 | 0.00 | 0.00 | 0.00 | 32 | 1015.8 |
| 20260506234604 | 78 | 323 | 6.0 | 10.0 | 0.00 | 0.00 | 0.00 | 31 | 1015.6 |
| 20260506234104 | 78 | 309 | 6.0 | 13.0 | 0.00 | 0.00 | 0.00 | 32 | 1015.5 |
| 20260506233604 | 79 | 318 | 7.0 | 13.0 | 0.00 | 0.00 | 0.00 | 31 | 1015.7 |
| 20260506233104 | 80 | 276 | 5.0 | 10.0 | 0.00 | 0.00 | 0.00 | 30 | 1015.7 |
| 20260506232104 | 79 | 298 | 3.0 | 8.0 | 0.00 | 0.00 | 0.00 | 31 | 1015.7 |
| 20260506231604 | 78 | 265 | 2.0 | 8.0 | 0.00 | 0.00 | 0.00 | 31 | 1015.7 |
| 20260506230604 | 78 | 265 | 4.0 | 10.0 | 0.00 | 0.00 | 0.00 | 31 | 1015.9 |
| 20260506230105 | 78 | 0 | 3.0 | 9.0 | 0.00 | 0.00 | 0.00 | 30 | 1016.0 |
| 20260506225604 | 79 | 255 | 6.0 | 9.0 | 0.00 | 0.00 | 0.00 | 30 | 1016.0 |
| 20260506224608 | 77 | 269 | 1.0 | 7.0 | 0.00 | 0.00 | 0.00 | 31 | 1016.1 |
| 20260506224104 | 77 | 243 | 3.0 | 10.0 | 0.00 | 0.00 | 0.00 | 32 | 1016.1 |
| 20260506223604 | 77 | 296 | 3.0 | 10.0 | 0.00 | 0.00 | 0.00 | 31 | 1016.1 |
| 20260506223104 | 77 | 280 | 5.0 | 10.0 | 0.00 | 0.00 | 0.00 | 31 | 1016.2 |
| 20260506222603 | 77 | 284 | 5.0 | 9.0 | 0.00 | 0.00 | 0.00 | 30 | 1016.2 |
| 20260506222105 | 77 | 288 | 2.0 | 6.0 | 0.00 | 0.00 | 0.00 | 31 | 1016.2 |
| 20260506221604 | 76 | 313 | 2.0 | 10.0 | 0.00 | 0.00 | 0.00 | 32 | 1016.3 |
| 20260506221107 | 76 | 252 | 5.0 | 10.0 | 0.00 | 0.00 | 0.00 | 31 | 1016.6 |
| 20260506220604 | 76 | 272 | 5.0 | 9.0 | 0.00 | 0.00 | 0.00 | 32 | 1016.7 |
| 20260506220104 | 76 | 269 | 5.0 | 10.0 | 0.00 | 0.00 | 0.00 | 32 | 1016.7 |
| 20260506214104 | 76 | 276 | 4.0 | 8.0 | 0.00 | 0.00 | 0.00 | 32 | 1016.9 |
| 20260506213604 | 75 | 298 | 5.0 | 8.0 | 0.00 | 0.00 | 0.00 | 32 | 1017.0 |
| 20260506213104 | 75 | 294 | 3.0 | 8.0 | 0.00 | 0.00 | 0.00 | 32 | 1017.1 |
| 20260506212104 | 75 | 319 | 2.0 | 6.0 | 0.00 | 0.00 | 0.00 | 34 | 1017.3 |
| 20260506211104 | 74 | 249 | 3.0 | 12.0 | 0.00 | 0.00 | 0.00 | 31 | 1017.4 |
| 20260506210604 | 73 | 251 | 5.0 | 12.0 | 0.00 | 0.00 | 0.00 | 34 | 1017.4 |
| 20260506210105 | 73 | 259 | 2.0 | 9.0 | 0.00 | 0.00 | 0.00 | 35 | 1017.4 |
| 20260506205604 | 72 | 275 | 4.0 | 9.0 | 0.00 | 0.00 | 0.00 | 37 | 1017.4 |
| 20260506204603 | 72 | 332 | 3.0 | 8.0 | 0.00 | 0.00 | 0.00 | 35 | 1017.5 |
| 20260506204104 | 72 | 294 | 4.0 | 8.0 | 0.00 | 0.00 | 0.00 | 34 | 1017.5 |
| 20260506202604 | 71 | 290 | 3.0 | 7.0 | 0.00 | 0.00 | 0.00 | 36 | 1017.8 |
| 20260506202107 | 71 | 293 | 2.0 | 7.0 | 0.00 | 0.00 | 0.00 | 38 | 1017.9 |
| 20260506201604 | 70 | 284 | 3.0 | 9.0 | 0.00 | 0.00 | 0.00 | 35 | 1017.9 |
| 20260506201106 | 70 | 299 | 2.0 | 9.0 | 0.00 | 0.00 | 0.00 | 36 | 1018.0 |
| 20260506200604 | 70 | 305 | 3.0 | 9.0 | 0.00 | 0.00 | 0.00 | 39 | 1018.0 |
| 20260506200104 | 69 | 298 | 3.0 | 9.0 | 0.00 | 0.00 | 0.00 | 39 | 1018.1 |
| 20260506195604 | 69 | 259 | 2.0 | 8.0 | 0.00 | 0.00 | 0.00 | 39 | 1018.2 |
| 20260506194604 | 69 | 279 | 5.0 | 8.0 | 0.00 | 0.00 | 0.00 | 40 | 1018.4 |
| 20260506194103 | 68 | 306 | 3.0 | 9.0 | 0.00 | 0.00 | 0.00 | 41 | 1018.4 |
| 20260506193604 | 68 | 309 | 3.0 | 9.0 | 0.00 | 0.00 | 0.00 | 42 | 1018.5 |
| 20260506193105 | 68 | 257 | 6.0 | 9.0 | 0.00 | 0.00 | 0.00 | 43 | 1018.6 |
| 20260506192604 | 68 | 301 | 5.0 | 7.0 | 0.00 | 0.00 | 0.00 | 43 | 1018.6 |
| 20260506192104 | 67 | 271 | 4.0 | 7.0 | 0.00 | 0.00 | 0.00 | 45 | 1018.6 |
| 20260506191105 | 67 | 317 | 6.0 | 9.0 | 0.00 | 0.00 | 0.00 | 45 | 1018.7 |
| 20260506190604 | 66 | 274 | 4.0 | 9.0 | 0.00 | 0.00 | 0.00 | 46 | 1018.7 |
| 20260506190104 | 66 | 257 | 1.0 | 8.0 | 0.00 | 0.00 | 0.00 | 47 | 1018.7 |
| 20260506185604 | 66 | 249 | 2.0 | 8.0 | 0.00 | 0.00 | 0.00 | 47 | 1018.7 |
| 20260506184604 | 65 | 299 | 4.0 | 10.0 | 0.00 | 0.00 | 0.00 | 48 | 1018.9 |
| 20260506184104 | 65 | 318 | 5.0 | 10.0 | 0.00 | 0.00 | 0.00 | 48 | 1018.8 |
| 20260506183604 | 64 | 317 | 2.0 | 7.0 | 0.00 | 0.00 | 0.00 | 48 | 1019.0 |
| 20260506183104 | 64 | 327 | 4.0 | 8.0 | 0.00 | 0.00 | 0.00 | 48 | 1019.1 |
| 20260506182106 | 64 | 291 | 2.0 | 5.0 | 0.00 | 0.00 | 0.00 | 51 | 1019.2 |
| 20260506181604 | 64 | 287 | 2.0 | 8.0 | 0.00 | 0.00 | 0.00 | 50 | 1019.3 |
| 20260506181107 | 63 | 273 | 3.0 | 8.0 | 0.00 | 0.00 | 0.00 | 50 | 1019.4 |
| 20260506180605 | 63 | 315 | 5.0 | 8.0 | 0.00 | 0.00 | 0.00 | 51 | 1019.4 |
| 20260506180104 | 63 | 328 | 1.0 | 7.0 | 0.00 | 0.00 | 0.00 | 50 | 1019.4 |
| 20260506175604 | 62 | 328 | 3.0 | 7.0 | 0.00 | 0.00 | 0.00 | 53 | 1019.4 |
| 20260506175104 | 62 | 300 | 3.0 | 7.0 | 0.00 | 0.00 | 0.00 | 54 | 1019.4 |
| 20260506174604 | 62 | 331 | 3.0 | 7.0 | 0.00 | 0.00 | 0.00 | 53 | 1019.4 |
| 20260506174104 | 62 | 322 | 4.0 | 8.0 | 0.00 | 0.00 | 0.00 | 53 | 1019.4 |
| 20260506173104 | 61 | 267 | 4.0 | 7.0 | 0.00 | 0.00 | 0.00 | 56 | 1019.4 |
| 20260506172604 | 61 | 321 | 2.0 | 7.0 | 0.00 | 0.00 | 0.00 | 55 | 1019.4 |
| 20260506171104 | 60 | 316 | 3.0 | 7.0 | 0.00 | 0.00 | 0.00 | 57 | 1019.4 |
| 20260506170603 | 60 | 280 | 5.0 | 7.0 | 0.00 | 0.00 | 0.00 | 58 | 1019.4 |
| 20260506170104 | 59 | 289 | 4.0 | 6.0 | 0.00 | 0.00 | 0.00 | 58 | 1019.3 |
| 20260506165604 | 59 | 246 | 3.0 | 7.0 | 0.00 | 0.00 | 0.00 | 57 | 1019.3 |
| 20260506165104 | 59 | 285 | 3.0 | 7.0 | 0.00 | 0.00 | 0.00 | 58 | 1019.4 |
| 20260506164604 | 59 | 278 | 4.0 | 6.0 | 0.00 | 0.00 | 0.00 | 57 | 1019.4 |
| 20260506163603 | 58 | 307 | 2.0 | 5.0 | 0.00 | 0.00 | 0.00 | 61 | 1019.3 |
| 20260506163104 | 58 | 314 | 2.0 | 5.0 | 0.00 | 0.00 | 0.00 | 60 | 1019.4 |
| 20260506162604 | 57 | 321 | 3.0 | 5.0 | 0.00 | 0.00 | 0.00 | 61 | 1019.3 |
| 20260506160604 | 56 | 282 | 1.0 | 3.0 | 0.00 | 0.01 | 0.00 | 65 | 1019.4 |
| 20260506160104 | 56 | 282 | 2.0 | 5.0 | 0.00 | 0.01 | 0.00 | 65 | 1019.4 |
| 20260506155605 | 56 | 281 | 3.0 | 5.0 | 0.00 | 0.01 | 0.00 | 66 | 1019.4 |
| 20260506155104 | 56 | 329 | 2.0 | 3.0 | 0.00 | 0.01 | 0.00 | 66 | 1019.3 |
| 20260506154604 | 56 | 329 | 2.0 | 3.0 | 0.00 | 0.01 | 0.00 | 67 | 1019.3 |
| 20260506153603 | 56 | 346 | 1.0 | 3.0 | 0.00 | 0.01 | 0.00 | 69 | 1019.3 |
| 20260506153104 | 55 | 346 | 0.0 | 3.0 | 0.00 | 0.01 | 0.00 | 70 | 1019.2 |
| 20260506152603 | 54 | 346 | 0.0 | 3.0 | 0.00 | 0.01 | 0.00 | 69 | 1019.3 |
| 20260506152104 | 54 | 346 | 0.0 | 3.0 | 0.00 | 0.01 | 0.00 | 70 | 1019.3 |
| 20260506151604 | 54 | 346 | 2.0 | 3.0 | 0.00 | 0.01 | 0.00 | 70 | 1019.3 |
| 20260506151106 | 54 | 117 | 0.0 | 3.0 | 0.00 | 0.01 | 0.00 | 72 | 1019.3 |
| 20260506150604 | 54 | 117 | 0.0 | 1.0 | 0.00 | 0.01 | 0.00 | 72 | 1019.3 |
| 20260506150104 | 53 | 117 | 0.0 | 2.0 | 0.00 | 0.01 | 0.00 | 73 | 1019.2 |
| 20260506145604 | 54 | 117 | 0.0 | 2.0 | 0.00 | 0.01 | 0.00 | 73 | 1019.3 |
| 20260506145104 | 54 | 115 | 0.0 | 1.0 | 0.00 | 0.01 | 0.00 | 75 | 1019.3 |
| 20260506144604 | 54 | 115 | 0.0 | 0.0 | 0.00 | 0.01 | 0.00 | 78 | 1019.3 |
| 20260506144103 | 53 | 115 | 0.0 | 0.0 | 0.00 | 0.01 | 0.00 | 80 | 1019.2 |
| 20260506143604 | 52 | 115 | 0.0 | 0.0 | 0.00 | 0.02 | 0.00 | 81 | 1019.1 |
| 20260506143104 | 51 | 115 | 0.0 | 1.0 | 0.00 | 0.03 | 0.00 | 83 | 1019.1 |
| 20260506142605 | 50 | 115 | 0.0 | 2.0 | 0.00 | 0.03 | 0.00 | 84 | 1019.1 |
| 20260506142104 | 50 | 115 | 0.0 | 2.0 | 0.00 | 0.04 | 0.00 | 85 | 1019.0 |
| 20260506141605 | 49 | 117 | 1.0 | 1.0 | 0.00 | 0.04 | 0.00 | 86 | 1019.0 |
| 20260506141107 | 49 | 120 | 0.0 | 1.0 | 0.00 | 0.06 | 0.00 | 87 | 1019.0 |
| 20260506140603 | 48 | 120 | 0.0 | 1.0 | 0.00 | 0.06 | 0.00 | 87 | 1019.0 |
| 20260506135604 | 47 | 120 | 0.0 | 2.0 | 0.00 | 0.06 | 0.00 | 87 | 1018.9 |
| 20260506135104 | 47 | 120 | 0.0 | 2.0 | 0.00 | 0.07 | 0.00 | 87 | 1018.9 |
| 20260506134604 | 47 | 123 | 0.0 | 2.0 | 0.00 | 0.07 | 0.00 | 87 | 1018.9 |
| 20260506134104 | 46 | 146 | 0.0 | 2.0 | 0.00 | 0.07 | 0.00 | 87 | 1018.9 |
| 20260506133604 | 46 | 146 | 0.0 | 1.0 | 0.00 | 0.07 | 0.00 | 87 | 1018.8 |
| 20260506133104 | 46 | 146 | 0.0 | 1.0 | 0.00 | 0.08 | 0.00 | 87 | 1018.8 |
| 20260506132604 | 46 | 146 | 0.0 | 2.0 | 0.00 | 0.08 | 0.00 | 87 | 1018.8 |
| 20260506132104 | 46 | 146 | 0.0 | 2.0 | 0.00 | 0.09 | 0.00 | 88 | 1018.8 |
| 20260506130605 | 46 | 149 | 1.0 | 2.0 | 0.00 | 0.12 | 0.00 | 88 | 1018.7 |
| 20260506130104 | 46 | 149 | 0.0 | 2.0 | 0.00 | 0.13 | 0.00 | 87 | 1018.7 |
| 20260506125104 | 46 | 149 | 0.0 | 2.0 | 0.00 | 0.13 | 0.00 | 87 | 1018.5 |
| 20260506124604 | 46 | 150 | 0.0 | 2.0 | 0.00 | 0.13 | 0.00 | 87 | 1018.4 |
| 20260506123604 | 46 | 150 | 0.0 | 2.0 | 0.00 | 0.13 | 0.00 | 87 | 1018.4 |
| 20260506123104 | 46 | 150 | 1.0 | 2.0 | 0.00 | 0.13 | 0.00 | 87 | 1018.4 |
| 20260506122604 | 46 | 150 | 1.0 | 2.0 | 0.00 | 0.13 | 0.00 | 87 | 1018.4 |
| 20260506122104 | 46 | 151 | 1.0 | 2.0 | 0.00 | 0.13 | 0.00 | 87 | 1018.4 |
| 20260506121604 | 46 | 151 | 1.0 | 2.0 | 0.00 | 0.13 | 0.00 | 86 | 1018.4 |
| 20260506121106 | 46 | 151 | 0.0 | 1.0 | 0.00 | 0.13 | 0.00 | 87 | 1018.4 |
| 20260506120604 | 46 | 151 | 0.0 | 1.0 | 0.00 | 0.14 | 0.00 | 87 | 1018.4 |
| 20260506120104 | 46 | 151 | 0.0 | 1.0 | 0.00 | 0.14 | 0.00 | 87 | 1018.4 |
| 20260506115604 | 46 | 151 | 0.0 | 1.0 | 0.00 | 0.14 | 0.00 | 87 | 1018.4 |
| 20260506115104 | 46 | 151 | 0.0 | 1.0 | 0.00 | 0.14 | 0.00 | 87 | 1018.4 |
| 20260506114604 | 46 | 151 | 0.0 | 1.0 | 0.00 | 0.14 | 0.00 | 87 | 1018.4 |
| 20260506114104 | 46 | 151 | 0.0 | 1.0 | 0.00 | 0.15 | 0.00 | 87 | 1018.4 |
| 20260506113604 | 46 | 151 | 0.0 | 1.0 | 0.00 | 0.15 | 0.00 | 86 | 1018.4 |
| 20260506113104 | 46 | 151 | 0.0 | 1.0 | 0.00 | 0.15 | 0.00 | 86 | 1018.4 |
| 20260506112605 | 46 | 151 | 0.0 | 2.0 | 0.00 | 0.15 | 0.00 | 86 | 1018.4 |